Location: Sternwarte ZA, Rosenfeld-Brittheim
(48.2889°N, 8.6789°E)
Time: 20:22:31
(UTC+02:00)

ISS - Pass Details

Date: 17 July 2019
Orbit: 409 x 418 km, 51.6° (Epoch: 20 July)

Event Time Altitude Azimuth Distance (km) Brightness Sun altitude
Rises 00:40:20 0° 259° (WSW) 2,348 0.1 -19.5°
Reaches altitude 10° 00:42:27 10° 262° (W) 1,485 -0.9 -19.6°
Maximum altitude 00:45:45 62° 344° (NNW) 470 -3.3 -19.7°
Drops below altitude 10° 00:49:03 10° 67° (ENE) 1,484 -0.8 -19.8°
Sets 00:51:10 0° 71° (ENE) 2,345 0.2 -19.8°
